Powrót do katalogu

QIANFAN-54

AktywnyŁącznośćPO
NORAD 62255·PAYLOAD·🇨🇳 China

Wystrzelony Dec 5, 2024 z Taiyuan Satellite Launch Center

Loading…

Następne Przeloty (najbliższe 24 godziny)

TLE

ŚwieżeSource: Space-Track

Epoka: Sep 14, 2026, 20:33 UTC

1 62255U 24232U   26257.85647210  .00000088  00000-0  11757-3 0  9998
2 62255  89.0153  13.1670 0003630 133.1436 227.0019 13.51028613136695

Śledź QIANFAN-54 w czasie rzeczywistym z AllMySat

Download on the App Store